PST,Max TemperatureF,Mean TemperatureF,Min TemperatureF,Max Dew PointF,MeanDew PointF,Min DewpointF,Max Humidity, Mean Humidity, Min Humidity, Max Sea Level PressureIn, Mean Sea Level PressureIn, Min Sea Level PressureIn, Max VisibilityMiles, Mean VisibilityMiles, Min VisibilityMiles, Max Wind SpeedMPH, Mean Wind SpeedMPH, Max Gust SpeedMPH,PrecipitationIn, CloudCover, Events, WindDirDegrees
2012-11-1,66,59,51,56,53,50,96,82,67,30.03,29.98,29.95,10,10,7,12,4,15,0.00,3,,116
2012-11-2,68,58,47,57,53,46,100,82,63,30.02,29.97,29.91,10,9,3,14,3,17,0.00,2,,108
2012-11-3,70,59,47,58,54,47,100,83,66,30.05,30.01,29.97,10,9,5,13,2,15,0.00,0,,244
2012-11-4,86,66,45,57,46,35,100,60,19,30.08,30.04,30.01,10,10,10,12,2,14,0.00,0,,259
2012-11-5,94,71,48,44,37,27,77,44,10,30.06,30.02,29.98,10,10,10,12,2,14,0.00,0,,234
2012-11-6,75,63,50,61,51,38,93,64,35,30.06,30.02,29.99,10,9,4,13,3,17,0.00,1,,141
2012-11-7,66,62,58,59,56,55,90,82,73,30.07,30.01,29.96,10,9,5,14,5,17,0.00,5,,190
2012-11-8,66,60,54,55,50,41,84,65,46,29.99,29.93,29.86,10,10,9,17,7,23,T,7,,333
2012-11-9,65,58,50,44,38,33,66,50,34,29.97,29.91,29.87,10,10,10,18,9,51,0.00,1,,283
2012-11-10,65,54,43,40,35,29,71,49,26,30.19,30.07,29.97,10,10,10,20,10,64,0.00,0,,312
2012-11-11,65,53,41,35,31,27,70,47,24,30.29,30.25,30.19,10,10,10,16,4,20,0.00,0,,284
2012-11-12,67,52,37,46,33,25,72,46,20,30.29,30.20,30.12,10,10,10,8,2,12,0.00,0,,220
2012-11-13,76,56,36,32,27,17,67,39,11,30.14,30.06,30.00,10,10,9,12,2,15,0.00,0,,262
2012-11-14,71,56,41,43,35,30,62,43,23,30.05,30.01,29.99,10,10,10,12,2,18,0.00,0,,108
2012-11-15,65,58,50,57,50,39,90,75,59,30.09,30.05,30.01,10,9,6,14,5,17,0.01,5,,94
2012-11-16,66,58,50,56,52,44,86,75,63,30.11,30.05,30.01,10,8,2,16,6,18,0.20,8,Rain,95
2012-11-17,63,61,59,61,58,54,100,89,78,30.10,30.04,29.99,10,6,0,17,6,23,0.56,8,Fog-Rain,111
2012-11-18,66,58,50,58,55,51,100,84,67,30.18,30.12,30.07,10,7,1,14,4,,T,4,Rain,266
2012-11-19,64,57,50,56,53,48,100,86,72,30.26,30.19,30.17,10,8,0,12,2,15,0.00,4,Fog,286
2012-11-20,69,58,46,56,52,44,96,80,63,30.16,30.09,30.02,10,10,10,8,2,9,0.00,0,,163
2012-11-21,73,61,49,57,53,49,96,77,57,30.10,30.04,29.99,10,10,8,17,4,23,0.00,0,,124
2012-11-22,65,57,49,57,53,48,100,87,73,30.12,30.07,30.02,10,5,0,9,2,10,0.00,4,Fog,59
2012-11-23,65,57,48,56,52,46,100,87,73,30.17,30.11,30.08,10,4,0,8,1,9,0.00,2,Fog,216
2012-11-24,74,60,45,58,49,41,100,66,31,30.07,30.01,29.91,10,8,1,13,2,15,0.00,0,,253
2012-11-25,64,55,45,56,52,43,100,89,78,29.98,29.92,29.88,10,6,0,13,3,15,0.00,5,Fog,157
2012-11-26,63,58,52,53,52,50,86,77,67,30.11,30.04,29.99,10,8,6,12,4,54,0.00,7,,90
2012-11-27,64,57,49,53,51,46,96,82,67,30.16,30.10,30.05,10,8,5,13,4,24,0.00,4,,292
2012-11-28,64,56,47,58,54,46,93,78,63,30.15,30.12,30.08,10,6,1,16,7,21,0.36,7,Rain,94
2012-11-29,62,61,60,61,59,57,97,94,90,30.19,30.14,30.12,10,6,2,18,7,,0.21,8,Rain,109
2012-11-30,68,64,60,63,60,59,100,89,78,30.14,30.10,30.06,10,5,2,12,5,15,0.59,8,Rain,96